EST,Max TemperatureF,Mean TemperatureF,Min TemperatureF,Max Dew PointF,MeanDew PointF,Min DewpointF,Max Humidity, Mean Humidity, Min Humidity, Max Sea Level PressureIn, Mean Sea Level PressureIn, Min Sea Level PressureIn, Max VisibilityMiles, Mean VisibilityMiles, Min VisibilityMiles, Max Wind SpeedMPH, Mean Wind SpeedMPH, Max Gust SpeedMPH,PrecipitationIn, CloudCover, Events, WindDirDegrees
2012-11-1,50,46,42,37,34,32,74,64,54,29.71,29.65,29.60,10,10,9,12,7,21,0.08,8,Rain,235
2012-11-2,50,44,39,34,30,28,73,57,46,29.90,29.77,29.71,10,10,10,14,6,28,0.00,6,,281
2012-11-3,46,44,41,30,28,26,60,55,51,30.07,30.00,29.90,10,10,10,9,5,23,0.00,7,,307
2012-11-4,48,42,37,27,26,25,65,54,44,30.07,30.05,30.02,10,10,10,8,2,16,0.00,6,,347
2012-11-5,46,38,30,25,24,23,75,54,41,30.20,30.10,30.04,10,10,9,9,3,,0.00,4,,356
2012-11-6,42,34,26,25,22,21,81,64,47,30.22,30.17,30.05,10,10,6,7,1,,0.09,2,,170
2012-11-7,42,38,34,26,23,19,73,52,41,30.04,29.96,29.90,10,10,10,6,2,,0.00,5,,43
2012-11-8,51,44,37,26,18,12,53,39,21,30.05,29.98,29.93,10,10,10,12,4,21,0.00,1,,318
2012-11-9,55,46,37,32,30,26,70,58,41,30.22,30.16,30.06,10,10,9,9,5,23,0.00,0,,273
2012-11-10,62,49,36,38,35,30,79,61,37,30.37,30.30,30.23,10,10,9,4,1,,0.00,2,,295
2012-11-11,64,52,39,42,38,35,86,64,39,30.46,30.40,30.34,10,9,5,5,0,,0.00,0,,23
2012-11-12,66,57,48,55,49,41,83,73,63,30.38,30.26,30.11,10,10,5,13,3,23,0.06,4,Rain,262
2012-11-13,48,42,35,45,30,23,87,67,44,30.50,30.36,30.19,10,8,3,12,6,20,0.44,4,Rain,323
2012-11-14,46,38,30,26,24,21,82,59,40,30.58,30.50,30.45,10,10,10,8,2,,0.00,2,,54
2012-11-15,46,38,30,30,27,23,82,67,48,30.43,30.38,30.32,10,10,7,5,1,,0.01,3,,145
2012-11-16,53,44,36,30,28,25,79,60,34,30.46,30.37,30.31,10,10,6,7,1,,0.00,0,,57
2012-11-17,55,42,30,29,27,24,79,62,35,30.62,30.57,30.47,10,10,10,7,1,,0.00,0,,47
2012-11-18,52,42,32,35,30,26,79,64,44,30.64,30.59,30.54,10,9,7,8,2,,0.00,2,,55
2012-11-19,51,43,35,35,33,30,87,74,54,30.51,30.40,30.25,10,9,7,5,1,,0.00,4,,325
2012-11-20,51,42,34,38,34,29,82,71,56,30.23,30.17,30.11,10,8,3,5,0,,0.00,0,,230
2012-11-21,59,47,35,36,31,27,77,65,33,30.24,30.18,30.12,10,6,2,5,1,,0.00,0,,218
2012-11-22,61,48,36,31,28,26,67,54,30,30.27,30.21,30.12,10,10,8,4,1,,0.00,0,,227
2012-11-23,64,52,41,45,31,26,69,45,29,30.09,29.89,29.77,10,10,10,13,2,29,0.01,2,,222
2012-11-24,41,41,39,21,20,20,46,46,45,29.86,29.86,29.86,10,10,10,13,11,23,0.00,4,,285
2012-11-25,,,,,,,,,,,,,,,,,,,,,,
2012-11-26,,,,,,,,,,,,,,,,,,,,,,
2012-11-27,,,,,,,,,,,,,,,,,,,,,,
2012-11-28,,,,,,,,,,,,,,,,,,,,,,
2012-11-29,,,,,,,,,,,,,,,,,,,,,,
2012-11-30,,,,,,,,,,,,,,,,,,,,,,